Weather History for Evanston, WY

Change the Weather History Date:

Monday, March 4, 2013

  Actual Average Record
Temperature  
Mean Temperature 25 °F 27 °F  
Max Temperature 32 °F 36 °F 46 °F (2009)
Min Temperature 18 °F 18 °F 3 °F (1997)
Degree Days  
Heating Degree Days 40 38  
Month to date heating degree days 135 154  
Since 1 July heating degree days 5730 6162  
Cooling Degree Days 0 0  
Month to date cooling degree days 0 0  
Year to date cooling degree days 0 0  
Moisture  
Dew Point 9 °F    
Average Humidity 59    
Maximum Humidity 85    
Minimum Humidity 33    
Precipitation  
Precipitation 0.00 in 0.02 in 0.05 in (2003)
Month to date precipitation T 0.09  
Year to date precipitation 0.47 1.24  
Sea Level Pressure  
Sea Level Pressure 30.09 in    
Wind  
Wind Speed 9 mph (NW)    
Max Wind Speed 18 mph    
Max Gust Speed -    
Visibility 10 miles    
Events      
T = Trace of Precipitation, MM = Missing Value Source: NWS Daily Summary

Daily Weather History Graph

Daily Weather History Graph

Search for Another Location

Airport:

Trip Planner

Search our weather history database for the weather conditions in past years. The results will help you decide how hot, cold, wet, or windy it might be!

Date:

Astronomy

Mar. 04, 2013 Rise Set
Actual Time 6:53 AM MST 6:18 PM MST
Civil Twilight 6:25 AM MST 6:46 PM MST
Nautical Twilight 5:53 AM MST 7:18 PM MST
Astronomical Twilight 5:21 AM MST 7:50 PM MST
Moon 1:09 AM MST (3/4) 11:01 AM MST (3/4)
Length of Visible Light 12h 20m
Length of Day
11h 25m
Waning Gibbous, 51% of the Moon is Illuminated
Mar 4
Waning Gibbous
Mar 4
Last Quarter
Mar 11
New
Mar 19
First Quarter
Mar 27
Full

Hourly Weather History & Observations

Time (MST) Temp. Windchill Dew Point Humidity Pressure Visibility Wind Dir Wind Speed Gust Speed Precip Events Conditions
12:53 AM 30.9 °F 19.1 °F 24.1 °F 76% 29.85 in 10.0 mi WNW 18.4 mph - N/A   Overcast
1:36 AM 30.2 °F 19.8 °F 21.2 °F 69% 29.89 in 10.0 mi West 13.8 mph - N/A   Overcast
1:53 AM 28.9 °F 19.2 °F 21.9 °F 75% 29.88 in 10.0 mi WNW 11.5 mph - N/A   Overcast
2:53 AM 27.0 °F 18.7 °F 19.9 °F 75% 29.88 in 10.0 mi West 8.1 mph - N/A   Overcast
3:53 AM 25.0 °F 16.3 °F 18.0 °F 75% 29.89 in 10.0 mi West 8.1 mph - N/A   Scattered Clouds
4:53 AM 23.0 °F 9.2 °F 15.1 °F 72% 29.91 in 10.0 mi WNW 17.3 mph - N/A   Partly Cloudy
5:53 AM 19.9 °F 11.1 °F 12.9 °F 74% 29.96 in 10.0 mi WNW 6.9 mph - N/A   Mostly Cloudy
6:53 AM 19.0 °F 9.0 °F 7.0 °F 59% 29.99 in 10.0 mi West 8.1 mph - N/A   Mostly Cloudy
7:53 AM 19.0 °F 6.1 °F 3.9 °F 52% 30.04 in 10.0 mi WNW 12.7 mph - N/A   Partly Cloudy
8:53 AM 19.0 °F 11.1 °F 7.0 °F 59% 30.08 in 10.0 mi NNE 5.8 mph - N/A   Scattered Clouds
9:53 AM 21.0 °F 16.2 °F 5.0 °F 50% 30.10 in 10.0 mi Variable 3.5 mph - N/A   Clear
10:53 AM 24.1 °F - 6.1 °F 46% 30.09 in 10.0 mi Calm Calm - N/A   Partly Cloudy
11:53 AM 24.1 °F 18.2 °F 6.1 °F 46% 30.12 in 10.0 mi North 4.6 mph - N/A   Clear
12:53 PM 25.0 °F 15.5 °F 5.0 °F 43% 30.13 in 10.0 mi North 9.2 mph - N/A   Clear
1:53 PM 25.0 °F 16.3 °F -0.0 °F 34% 30.14 in 10.0 mi North 8.1 mph - N/A   Clear
2:53 PM 26.1 °F 21.9 °F 3.0 °F 37% 30.15 in 10.0 mi Variable 3.5 mph - N/A   Clear
3:53 PM 27.0 °F 23.0 °F 3.0 °F 36% 30.18 in 10.0 mi NE 3.5 mph - N/A   Clear
4:53 PM 27.0 °F 21.6 °F 5.0 °F 39% 30.19 in 10.0 mi ENE 4.6 mph - N/A   Clear
5:53 PM 25.0 °F - 6.1 °F 45% 30.23 in 10.0 mi Calm Calm - N/A   Clear
6:53 PM 19.9 °F 11.1 °F 10.0 °F 65% 30.28 in 10.0 mi NNW 6.9 mph - N/A   Clear
7:53 PM 18.0 °F 8.7 °F 7.0 °F 62% 30.30 in 10.0 mi NNW 6.9 mph - N/A   Clear
8:53 PM 18.0 °F 9.8 °F 7.0 °F 62% 30.31 in 10.0 mi North 5.8 mph - N/A   Clear
9:53 PM 17.1 °F - 5.0 °F 59% 30.32 in 10.0 mi Calm Calm - N/A   Clear
10:53 PM 15.1 °F - 5.0 °F 64% 30.32 in 10.0 mi Calm Calm - N/A   Clear